Retour au catalogue

SL-8 R/B

ActifLEO
NORAD 18096·ROCKET BODY·🇷🇺 Russia

Lancé Jun 9, 1987 depuis Plesetsk Cosmodrome

Loading…

Prochains Passages (prochaines 24 heures)

TLE

FraisSource: Space-Track

Époque: Sep 14, 2026, 08:55 UTC

1 18096U 87049B   26257.37209448  .00000139  00000-0  54397-4 0  9996
2 18096  74.0416 140.8972 0021945 205.4267 154.5810 14.38037139 56594

Suivez SL-8 R/B en temps réel avec AllMySat

Download on the App Store